This is the latest recevied weather packets stored in our database for station/object N5SRF. If no packets are shown the sender has not sent any weather packets the latest 10 day(s).
| Time | Temp. | Humidity | Pressure | Rain* | Wind** | Luminosity | Snow |
|---|---|---|---|---|---|---|---|
| 1777764604 | 22.78° C | 53% | 1022.5 hPa | 0 mm | - | 46 W/m² | - |
| 1777764301 | 22.78° C | 51% | 1022.4 hPa | 0 mm | - | 54 W/m² | - |
| 1777763997 | 23.33° C | 50% | 1022.5 hPa | 0 mm | - | 67 W/m² | - |
| 1777763695 | 23.33° C | 49% | 1022.4 hPa | 0 mm | - | 89 W/m² | - |
| 1777763393 | 23.89° C | 51% | 1022.6 hPa | 0 mm | - | 135 W/m² | - |
| 1777763090 | 23.89° C | 51% | 1022.3 hPa | 0 mm | - | 216 W/m² | - |
| 1777762788 | 23.33° C | 50% | 1022.2 hPa | 0 mm | - | 229 W/m² | - |
| 1777762484 | 22.78° C | 50% | 1022.6 hPa | 0 mm | - | 240 W/m² | - |
| 1777762181 | 23.33° C | 50% | 1022.5 hPa | 0 mm | - | 66 W/m² | - |
| 1777761877 | 23.89° C | 51% | 1022.7 hPa | 0 mm | - | 229 W/m² | - |
| 1777761574 | 23.89° C | 49% | 1022.6 hPa | 0 mm | - | 297 W/m² | - |
| 1777761272 | 25° C | 47% | 1022.7 hPa | 0 mm | - | 303 W/m² | - |
| 1777760970 | 25° C | 47% | 1022.5 hPa | 0 mm | - | 314 W/m² | - |
| 1777760667 | 25° C | 46% | 1022.5 hPa | 0 mm | - | 329 W/m² | - |
| 1777760362 | 24.44° C | 46% | 1022.5 hPa | 0 mm | - | 348 W/m² | - |
| 1777760059 | 25° C | 48% | 1022.7 hPa | 0 mm | - | 365 W/m² | - |
| 1777759757 | 24.44° C | 48% | 1022.7 hPa | 0 mm | - | 378 W/m² | - |
| 1777759452 | 24.44° C | 49% | 1022.5 hPa | 0 mm | - | 393 W/m² | - |
| 1777759149 | 25° C | 46% | 1022.5 hPa | 0 mm | - | 407 W/m² | - |
| 1777758847 | 25° C | 47% | 1022.5 hPa | 0 mm | - | 422 W/m² | - |
| 1777758543 | 24.44° C | 48% | 1022.7 hPa | 0 mm | - | 434 W/m² | - |
| 1777758240 | 23.89° C | 50% | 1022.9 hPa | 0 mm | - | 454 W/m² | - |
| 1777757937 | 24.44° C | 46% | 1022.8 hPa | 0 mm | - | 468 W/m² | - |
| 1777757634 | 25° C | 47% | 1022.4 hPa | 0 mm | - | 481 W/m² | - |
| 1777757333 | 25° C | 48% | 1022.5 hPa | 0 mm | - | 494 W/m² | - |
* Rain latest hour (hover to see other rain measurements)
** Current wind speed in m/s (hover to see current wind gust speed)